Regional Weather Roundup
Issued by NWS

Home | Current Version | Previous Version | Text Only | Print | Product List | Glossary On
Versions: 1 2 3 4 5 6 7 8 9 10 11 12 13 14 15 16 17 18 19 20 21 22 23 24 25 26 27 28 29 30 31 32 33 34 35 36 37 38 39 40 41 42 43 44 45 46 47 48 49 50
000
ASUS44 KLIX 212306
RWRLA
LOUISIANA WEATHER ROUNDUP
NATIONAL WEATHER SERVICE NEW ORLEANS LA
600 PM CDT MON MAY 21 2018

NOTE: "FAIR" INDICATES FEW OR NO CLOUDS BELOW 12,000 FEET WITH NO
      SIGNIFICANT WEATHER AND/OR OBSTRUCTIONS TO VISIBILITY.
      SKY/WX - SKY CONDITION AND SIGNIFICANT WEATHER.
      TMP - AIR TEMPERATURE.    DP   - DEWPOINT TEMPERATURE.
      RH  - RELATIVE HUMIDITY.  PRES - PRESSURE.
      HX  - HEAT INDEX.         WCI  - WIND CHILL INDEX.

*  THESE STATIONS ARE NOT NWS OR FAA STATIONS AND ARE NOT UNDER
   NWS QUALITY CONTROL.

LAZ040-048-061>063-065-066-069-220000-
SOUTHEAST LOUISIANA

CITY           SKY/WX    TMP DP  RH WIND       PRES   REMARKS
N.O. INTL ARPT PTSUNNY   85  71  63 SE10      29.95S
N.O. LAKEFRONT FAIR      84  70  62 S8        29.95S
N.O. DOWNTOWN* FAIR      84  71  65 S7        29.96F
RESERVE*         N/A     87  68  52 SE7       29.95R
SLIDELL        FAIR      84  69  60 SE7       29.95S
BATON ROUGE    FAIR      89  63  41 SE6       29.92S
BOOTHVILLE     FAIR      84  72  67 SE8       29.96F
BELLE CHASSE   PTSUNNY   83  74  74 S8        29.95F
BOGALUSA*      FAIR      87  66  50 S6        29.95F
GALLIANO*      FAIR      84  70  62 S8        29.95S
NEW ROADS*     FAIR      93  62  35 N6        29.93S
GONZALES*      LGT RAIN  77  73  86 W8        29.94R
HAMMOND*       FAIR      82  72  69 S7        29.95R
HOUMA*         LGT RAIN  84  72  65 SE6       29.95F
PORT FOURCHON* CLEAR     82  70  65 SE10      29.96S

$$

LAZ041-044-053-054-220000-
SOUTHWEST LOUISIANA

CITY           SKY/WX    TMP DP  RH WIND       PRES   REMARKS
LAKE CHARLES   PTSUNNY   79  70  74 SW5       29.94F
LAFAYETTE      PTSUNNY   87  68  52 CALM      29.93S
PATTERSON      CLOUDY    84  73  69 SW10      29.95S
SALT POINT       N/A    N/A N/A N/A VRB6      29.93F
NEW IBERIA     FAIR      85  68  56 S10       29.94S
CHENAULT AIRPK MOSUNNY   82  68  61 SW9       29.94F

$$

LAZ027-028-220000-
CENTRAL LOUISIANA

CITY           SKY/WX    TMP DP  RH WIND       PRES   REMARKS
FORT POLK      NOT AVBL
ALEXANDRIA INT FAIR      90  64  42 SE6       29.90F
ALEXANDRIA     FAIR      88  66  48 SW3       29.93S

$$

LAZ001-002-220000-
NORTHWEST LOUISIANA

CITY           SKY/WX    TMP DP  RH WIND       PRES   REMARKS
SHREVEPORT     PTSUNNY   85  68  56 SW6       29.93F
BARKSDALE AFB  NOT AVBL
DTN SHREVEPORT LGT RAIN  87  66  49 CALM      29.93F

$$

LAZ014-016-220000-
NORTHEAST LOUISIANA

CITY           SKY/WX    TMP DP  RH WIND       PRES   REMARKS
MONROE         PTSUNNY   90  68  48 N7        29.93S
TALLULAH       FAIR      87  71  58 VRB3      29.94F

$$




USA.gov is the U.S. government's official web portal to all federal, state and local government web resources and services.